CW4352 Weather Reports


Display with metric or nautical units.
time (UTC)temp
F
wind
direction
speed
MPH
gust
MPH
rain 1hr
in
rain 24hr
in
rain mn
in
humidity
%
barometer
mb
20260831073704 81 0 0.0 1.0 0.00 0.00 0.00 45 1010.0
20260831071704 79 0 0.0 0.0 0.00 0.00 0.00 47 1010.0
20260831070204 78 267 1.0 3.0 0.00 0.00 0.00 47 1010.0
20260831064704 76 267 1.0 2.0 0.00 0.00 0.00 49 1009.9
20260831063705 75 267 1.0 2.0 0.00 0.00 0.00 50 1009.9
20260831061704 74 267 2.0 3.0 0.00 0.00 0.00 51 1009.8
20260831061205 73 267 2.0 6.0 0.00 0.00 0.00 51 1009.5
20260831060705 73 267 5.0 8.0 0.00 0.00 0.00 52 1009.5
20260831060204 72 267 3.0 6.0 0.00 0.00 0.00 54 1009.5
20260831053705 71 267 1.0 3.0 0.00 0.00 0.00 57 1009.5
20260831053204 71 267 3.0 5.0 0.00 0.00 0.00 56 1009.5
20260831051705 71 267 2.0 3.0 0.00 0.00 0.00 57 1009.5
20260831051205 71 267 3.0 3.0 0.00 0.00 0.00 57 1009.5
20260831044705 71 267 3.0 5.0 0.00 0.00 0.00 56 1009.5
20260831044204 71 267 3.0 3.0 0.00 0.00 0.00 56 1009.5
20260831043705 71 267 3.0 5.0 0.00 0.00 0.00 56 1009.3
20260831043205 71 267 2.0 7.0 0.00 0.00 0.00 56 1009.3
20260831041704 71 267 1.0 3.0 0.00 0.00 0.00 57 1009.3
20260831041205 71 267 1.0 3.0 0.00 0.00 0.00 57 1009.3
20260831034704 71 267 2.0 6.0 0.00 0.00 0.00 55 1009.2
20260831034204 71 267 2.0 5.0 0.00 0.00 0.00 55 1009.5
20260831033205 71 267 2.0 9.0 0.00 0.00 0.00 54 1009.5
20260831031205 72 284 5.0 7.0 0.00 0.00 0.00 54 1009.5
20260831030704 71 286 4.0 7.0 0.00 0.00 0.00 55 1009.5
20260831030204 71 286 4.0 6.0 0.00 0.00 0.00 55 1009.5
20260831024706 71 286 2.0 3.0 0.00 0.00 0.00 58 1009.6
20260831020704 71 287 2.0 6.0 0.00 0.00 0.00 57 1009.9
20260831020205 71 287 5.0 5.0 0.00 0.00 0.00 58 1009.9
20260831014704 72 287 1.0 3.0 0.00 0.00 0.00 56 1009.9
20260831014204 72 287 2.0 3.0 0.00 0.00 0.00 56 1009.9
20260831013705 72 287 1.0 3.0 0.00 0.00 0.00 56 1009.8
20260831011204 72 287 1.0 3.0 0.00 0.00 0.00 56 1009.8
20260831010705 72 287 1.0 3.0 0.00 0.00 0.00 56 1009.8
20260831004705 73 287 2.0 3.0 0.00 0.00 0.00 57 1010.0
20260831001704 73 287 3.0 5.0 0.00 0.00 0.00 55 1010.0
20260831001204 73 287 2.0 3.0 0.00 0.00 0.00 55 1010.0
20260831000204 73 287 2.0 3.0 0.00 0.00 0.00 55 1010.0
20260830234704 74 287 1.0 3.0 0.00 0.00 0.00 54 1010.0
20260830233704 74 287 1.0 3.0 0.00 0.00 0.00 54 1010.0
20260830230706 74 287 3.0 6.0 0.00 0.00 0.00 53 1010.0
20260830221704 74 5 2.0 3.0 0.00 0.00 0.00 54 1009.8
20260830220705 75 5 1.0 3.0 0.00 0.00 0.00 54 1009.8
20260830214704 75 5 1.0 2.0 0.00 0.00 0.00 53 1009.8
20260830213704 75 5 1.0 2.0 0.00 0.00 0.00 53 1009.7
20260830213204 75 5 1.0 3.0 0.00 0.00 0.00 53 1009.5
20260830211204 76 5 1.0 3.0 0.00 0.00 0.00 53 1009.5
20260830201703 77 5 2.0 3.0 0.00 0.00 0.00 50 1009.5
20260830200203 77 5 1.0 2.0 0.00 0.00 0.00 50 1009.5
20260830193703 77 5 1.0 2.0 0.00 0.00 0.00 48 1009.5
20260830191703 79 5 1.0 2.0 0.00 0.00 0.00 46 1009.3
20260830191203 79 5 0.0 0.0 0.00 0.00 0.00 46 1009.3
20260830190703 80 5 0.0 0.0 0.00 0.00 0.00 45 1009.3
20260830184203 82 5 0.0 0.0 0.00 0.00 0.00 42 1009.0
20260830183703 82 5 0.0 0.0 0.00 0.00 0.00 41 1009.0
20260830183204 83 5 0.0 0.0 0.00 0.00 0.00 41 1009.0
20260830181203 84 5 0.0 0.0 0.00 0.00 0.00 38 1008.5
20260830174205 85 5 2.0 3.0 0.00 0.00 0.00 36 1008.5
20260830171205 86 355 2.0 3.0 0.00 0.00 0.00 35 1008.5
20260830170705 87 4 2.0 3.0 0.00 0.00 0.00 35 1008.5
20260830164205 88 11 3.0 5.0 0.00 0.00 0.00 34 1008.6
20260830161205 88 27 2.0 3.0 0.00 0.00 0.00 35 1008.6
20260830160205 88 9 1.0 7.0 0.00 0.00 0.00 35 1008.7
20260830154205 89 36 2.0 5.0 0.00 0.00 0.00 33 1008.7
20260830153705 89 9 1.0 3.0 0.00 0.00 0.00 34 1008.7
20260830151205 89 17 2.0 8.0 0.00 0.00 0.00 30 1008.9
20260830150705 89 5 1.0 3.0 0.00 0.00 0.00 31 1008.9
20260830144205 90 53 2.0 6.0 0.00 0.00 0.00 27 1009.0
20260830143205 90 51 2.0 3.0 0.00 0.00 0.00 29 1009.0
20260830141705 89 22 1.0 3.0 0.00 0.00 0.00 27 1009.0
20260830140205 89 12 2.0 5.0 0.00 0.00 0.00 30 1009.0
20260830134205 89 47 1.0 3.0 0.00 0.00 0.00 29 1009.5
20260830133205 89 36 1.0 6.0 0.00 0.00 0.00 29 1009.5
20260830131705 89 51 2.0 8.0 0.00 0.00 0.00 28 1009.9
20260830131205 89 16 2.0 5.0 0.00 0.00 0.00 27 1009.9
20260830130206 89 46 1.0 3.0 0.00 0.00 0.00 30 1009.9
20260830123705 88 33 0.0 3.0 0.00 0.00 0.00 28 1009.9
20260830123205 88 43 1.0 3.0 0.00 0.00 0.00 28 1010.0
20260830120705 86 332 2.0 7.0 0.00 0.00 0.00 31 1010.0
20260830114705 86 1 3.0 6.0 0.00 0.00 0.00 31 1010.0
20260830113205 85 34 3.0 6.0 0.00 0.00 0.00 32 1010.1
20260830110705 84 4 3.0 9.0 0.00 0.00 0.00 33 1010.1
20260830110205 84 346 3.0 9.0 0.00 0.00 0.00 34 1010.1
20260830104705 84 20 2.0 5.0 0.00 0.00 0.00 34 1010.5
20260830104204 84 19 2.0 5.0 0.00 0.00 0.00 36 1010.5
20260830103205 83 24 5.0 8.0 0.00 0.00 0.00 35 1010.5
20260830101704 83 27 2.0 5.0 0.00 0.00 0.00 36 1010.5
20260830101205 83 22 3.0 10.0 0.00 0.00 0.00 36 1010.7
20260830100205 83 44 1.0 8.0 0.00 0.00 0.00 36 1010.7
20260830094704 83 351 4.0 8.0 0.00 0.00 0.00 35 1010.7
20260830084705 83 336 0.0 3.0 0.00 0.00 0.00 28 1011.1
20260830083705 83 277 1.0 3.0 0.00 0.00 0.00 28 1011.1
20260830081705 82 231 0.0 2.0 0.00 0.00 0.00 28 1011.1
20260830080704 81 231 0.0 1.0 0.00 0.00 0.00 28 1011.1
20260830080204 81 231 1.0 3.0 0.00 0.00 0.00 28 1011.0
20260830074704 79 231 0.0 2.0 0.00 0.00 0.00 29 1010.8